This is the latest recevied weather packets stored in our database for station/object DL2MWB-13. If no packets are shown the sender has not sent any weather packets the latest 10 day(s).
| Time | Temp. | Humidity | Pressure | Rain* | Wind** | Luminosity | Snow |
|---|---|---|---|---|---|---|---|
| 1777881735 | 16.67° C | 48% | 1021 hPa | - | - | - | - |
| 1777881132 | 16.11° C | 48% | 1021 hPa | - | - | - | - |
| 1777880528 | 16.11° C | 48% | 1020 hPa | - | - | - | - |
| 1777879925 | 16.11° C | 47% | 1021 hPa | - | - | - | - |
| 1777879321 | 16.11° C | 48% | 1021 hPa | - | - | - | - |
| 1777878718 | 16.11° C | 49% | 1021 hPa | - | - | - | - |
| 1777878114 | 15.56° C | 51% | 1021 hPa | - | - | - | - |
| 1777877511 | 15.56° C | 53% | 1021 hPa | - | - | - | - |
| 1777876907 | 15° C | 55% | 1021 hPa | - | - | - | - |
| 1777876305 | 15° C | 57% | 1021 hPa | - | - | - | - |
| 1777875700 | 14.44° C | 57% | 1021 hPa | - | - | - | - |
| 1777875097 | 14.44° C | 54% | 1020 hPa | - | - | - | - |
| 1777874493 | 14.44° C | 54% | 1021 hPa | - | - | - | - |
| 1777873890 | 13.89° C | 56% | 1021 hPa | - | - | - | - |
| 1777873286 | 13.89° C | 57% | 1021 hPa | - | - | - | - |
| 1777872683 | 13.33° C | 58% | 1021 hPa | - | - | - | - |
| 1777872079 | 13.33° C | 58% | 1021 hPa | - | - | - | - |
| 1777871476 | 12.78° C | 58% | 1021 hPa | - | - | - | - |
| 1777870872 | 12.78° C | 58% | 1021 hPa | - | - | - | - |
| 1777870269 | 12.78° C | 58% | 1021 hPa | - | - | - | - |
| 1777869665 | 12.78° C | 56% | 1021 hPa | - | - | - | - |
| 1777869062 | 12.78° C | 56% | 1020 hPa | - | - | - | - |
| 1777868458 | 12.78° C | 56% | 1021 hPa | - | - | - | - |
| 1777867855 | 12.78° C | 56% | 1021 hPa | - | - | - | - |
| 1777867251 | 13.33° C | 56% | 1021 hPa | - | - | - | - |
* Rain since midnight (hover to see other rain measurements)
** Current wind speed in m/s (hover to see current wind gust speed)